Regional Weather Roundup
Issued by NWS

Home | Current Version | Previous Version | Graphics & Text | Print | Product List | Glossary On
Versions: 1 2 3 4 5 6 7 8 9 10 11 12 13 14 15 16 17 18 19 20 21 22 23 24 25 26 27 28 29 30 31 32 33 34 35 36 37 38 39 40 41 42 43 44 45 46 47 48 49 50
000
ASUS43 KFSD 231602
RWRSD

WEATHER ROUNDUP FOR SOUTH DAKOTA
NATIONAL WEATHER SERVICE SIOUX FALLS SD
1100 AM CDT FRI JUN 23 2017

NOTE: "FAIR" INDICATES FEW OR NO CLOUDS BELOW 12,000 FEET WITH NO
SIGNIFICANT WEATHER AND/OR OBSTRUCTIONS TO VISIBILITY.


SDZ001>005-009-010-012>017-231700-
NORTHWEST AND NORTH CENTRAL SOUTH DAKOTA

CITY           SKY/WX    TMP DP  RH WIND       PRES   REMARKS
BUFFALO          N/A     59  33  37 NW31G40   30.11F
FAITH            N/A     60  36  40 NW26G39   30.14S
MOBRIDGE       PTSUNNY   63  37  38 NW25G33   30.05R
$$

SDZ012>016-024>037-041>051-057-063-072>074-231700-
SOUTHWEST AND SOUTH CENTRAL SOUTH DAKOTA

CITY           SKY/WX    TMP DP  RH WIND       PRES   REMARKS
RAPID CTY ARPT PTSUNNY   58  38  47 NW24G30   30.20S
PIERRE         PTSUNNY   63  43  48 NW24G33   30.09F
CUSTER         SUNNY     55  28  35 VRB7      30.22F
ELLSWORTH AFB  CLOUDY    59  37  44 NW23G33   30.19S
PHILIP         CLOUDY    62  41  46 NW21G30   30.15S
PINE RIDGE     MOSUNNY   62  43  49 N9G18     30.20S
SPEARFISH      FAIR      54  37  54 NW16G26   30.23S
WINNER         CLOUDY    62  47  57 NW23G36   30.11R
$$

SDZ004>011-016>023-039-040-231700-
NORTHEAST SOUTH DAKOTA

CITY           SKY/WX    TMP DP  RH WIND       PRES   REMARKS
ABERDEEN       CLOUDY    60  47  61 NW23G30   30.00R
WATERTOWN      CLOUDY    58  50  75 NW25G32   29.96R
BROOKINGS      CLOUDY    59  50  72 NW22G31   29.97R
SISSETON         N/A     63  50  62 NW23G33   29.91R
$$

SDZ017-020-022-023-036>040-048>070-231700-
SOUTHEAST SOUTH DAKOTA

CITY           SKY/WX    TMP DP  RH WIND       PRES   REMARKS
SIOUX FALLS    CLOUDY    62  52  69 NW18G25   29.99R
HURON          CLOUDY    63  50  62 NW25      30.01R
CHAMBERLAIN    CLOUDY    63  49  61 NW24      30.08S
MITCHELL       CLOUDY    64  48  56 NW24G30   30.03R
YANKTON        PTSUNNY   63  50  62 NW16      30.03S
$$

ABBREVIATIONS USED IN REMARKS
   TC - TEMPERATURE IN CELSIUS
  WCI - WIND CHILL INDEX
   HX - HEAT INDEX
  VSB - VISIBILITY





USA.gov is the U.S. government's official web portal to all federal, state and local government web resources and services.